Date,TemperatureHighF,TemperatureAvgF,TemperatureLowF,DewpointHighF,DewpointAvgF,DewpointLowF,HumidityHigh,HumidityAvg,HumidityLow,PressureMaxIn,PressureMinIn,WindSpeedMaxMPH,WindSpeedAvgMPH,GustSpeedMaxMPH,PrecipitationSumIn
2013-5-1,65,54,45,47,40,30,95,66,28,30.33,30.21,4,1,9,0.01
2013-5-2,66,52,43,48,40,34,86,64,35,30.33,30.24,6,1,9,0.01
2013-5-3,61,50,42,47,42,36,90,74,53,30.29,30.20,6,1,10,0.00
2013-5-4,59,47,35,47,39,33,91,76,57,30.23,30.12,8,1,12,0.00
2013-5-5,61,48,36,42,36,22,88,66,42,30.16,30.06,6,2,11,0.00
2013-5-6,53,49,44,52,48,42,95,94,89,30.09,29.95,6,2,11,1.23
2013-5-7,56,52,47,55,51,46,96,95,94,29.96,29.83,4,1,9,4.23
2013-5-8,58,50,46,52,48,45,96,93,77,29.95,29.87,5,0,7,0.28
2013-5-9,70,57,47,56,50,46,95,78,47,30.01,29.90,5,1,9,0.05
2013-5-10,77,65,57,58,53,48,94,67,49,30.01,29.80,6,2,14,0.30
2013-5-11,71,62,57,59,56,51,94,81,59,29.81,29.67,7,2,14,0.01
2013-5-12,57,50,42,51,34,24,83,58,34,29.98,29.70,9,2,12,0.01
2013-5-13,52,42,37,29,26,21,68,53,34,30.14,29.98,7,2,13,0.00
2013-5-14,62,47,34,40,32,26,79,58,36,30.19,29.99,8,1,9,0.00
2013-5-15,87,67,52,59,48,40,75,54,26,30.00,29.72,8,2,15,0.00
2013-5-16,75,68,63,59,54,47,77,60,39,29.89,29.75,5,1,9,0.00
2013-5-17,76,65,57,58,55,52,89,73,46,30.04,29.86,5,1,8,0.00
2013-5-18,64,60,56,60,57,54,94,89,80,30.11,30.02,5,1,8,0.04
2013-5-19,67,61,56,61,58,54,95,90,81,30.11,30.01,6,1,10,0.04
2013-5-20,78,67,60,66,62,59,94,85,63,30.04,29.92,7,1,9,0.00
2013-5-21,83,70,62,69,64,58,93,80,53,29.93,29.81,5,1,8,0.00
2013-5-22,83,70,60,67,62,57,94,76,42,29.87,29.75,8,1,14,0.29
2013-5-23,75,65,58,63,59,56,94,83,61,29.82,29.68,5,1,9,0.29
2013-5-24,58,48,37,56,42,29,94,79,58,30.11,29.69,7,2,15,0.29
2013-5-25,59,44,32,36,31,27,86,63,35,30.21,30.10,8,2,12,0.00
2013-5-26,68,52,41,35,31,25,73,47,22,30.22,30.13,5,1,12,0.00
2013-5-27,59,55,49,51,44,33,86,67,48,30.23,30.13,2,0,3,0.02
2013-5-28,78,65,58,68,58,52,93,78,56,30.16,30.02,5,1,9,0.62
2013-5-29,82,71,63,63,60,58,88,70,45,30.10,30.02,6,2,9,0.00
2013-5-30,82,72,64,67,62,59,86,71,48,30.14,30.05,4,1,9,0.00
2013-5-31,83,71,63,66,59,-100,85,70,50,30.09,29.97,7,-9,12,0.00